TimeMDT,TemperatureF,Dew PointF,Humidity,Sea Level PressureIn,VisibilityMPH,Wind Direction,Wind SpeedMPH,Gust SpeedMPH,PrecipitationIn,Events,Conditions,WindDirDegrees,DateUTC
12:53 AM,6.1,-0.0,76,30.19,10.0,NNE,3.5,-,N/A,,Clear,30,2013-04-24 06:53:00
1:53 AM,5.0,-0.0,80,30.16,10.0,Calm,Calm,-,N/A,,Clear,0,2013-04-24 07:53:00
2:53 AM,5.0,-0.9,76,30.15,10.0,NE,5.8,-,N/A,,Clear,50,2013-04-24 08:53:00
3:53 AM,1.9,-4.0,76,30.16,10.0,NNE,4.6,-,N/A,,Scattered Clouds,30,2013-04-24 09:53:00
4:53 AM,1.9,-4.0,76,30.15,10.0,Calm,Calm,-,N/A,,Mostly Cloudy,0,2013-04-24 10:53:00
5:53 AM,5.0,-0.9,76,30.15,10.0,North,3.5,-,N/A,,Overcast,10,2013-04-24 11:53:00
6:53 AM,9.0,1.9,73,30.14,10.0,Calm,Calm,-,N/A,,Overcast,0,2013-04-24 12:53:00
7:53 AM,12.0,3.9,70,30.17,10.0,Calm,Calm,-,N/A,,Overcast,0,2013-04-24 13:53:00
8:53 AM,19.0,9.0,65,30.15,10.0,Variable,4.6,-,N/A,,Overcast,0,2013-04-24 14:53:00
9:20 AM,19.4,10.4,68,30.16,6.0,Calm,Calm,-,N/A,,Haze,0,2013-04-24 15:20:00
9:48 AM,19.4,10.4,68,30.16,10.0,SW,4.6,-,0.00,,Overcast,230,2013-04-24 15:48:00
9:53 AM,19.9,10.0,65,30.19,10.0,Calm,Calm,-,0.00,,Overcast,0,2013-04-24 15:53:00
10:53 AM,25.0,8.1,49,30.17,10.0,West,8.1,19.6,N/A,,Overcast,270,2013-04-24 16:53:00
11:53 AM,27.0,6.1,41,30.18,10.0,West,16.1,24.2,N/A,,Mostly Cloudy,270,2013-04-24 17:53:00
12:53 PM,30.0,5.0,35,30.18,10.0,NW,17.3,24.2,N/A,,Partly Cloudy,310,2013-04-24 18:53:00
1:53 PM,30.9,6.1,35,30.19,10.0,WNW,15.0,23.0,N/A,,Mostly Cloudy,300,2013-04-24 19:53:00
2:53 PM,32.0,3.9,31,30.18,10.0,West,15.0,25.3,N/A,,Mostly Cloudy,280,2013-04-24 20:53:00
3:53 PM,33.1,1.9,27,30.19,10.0,West,15.0,23.0,N/A,,Scattered Clouds,280,2013-04-24 21:53:00
4:53 PM,33.1,-0.0,24,30.19,10.0,WNW,12.7,23.0,N/A,,Clear,290,2013-04-24 22:53:00
5:53 PM,33.1,-0.0,24,30.19,10.0,NW,8.1,21.9,N/A,,Clear,310,2013-04-24 23:53:00
6:53 PM,32.0,1.0,27,30.18,10.0,West,9.2,-,N/A,,Clear,270,2013-04-25 00:53:00
7:53 PM,28.0,1.0,31,30.21,10.0,Calm,Calm,-,N/A,,Clear,0,2013-04-25 01:53:00
8:53 PM,25.0,1.0,36,30.20,10.0,Calm,Calm,-,N/A,,Clear,0,2013-04-25 02:53:00
9:53 PM,19.9,3.9,50,30.23,10.0,East,5.8,-,N/A,,Clear,100,2013-04-25 03:53:00
10:53 PM,17.1,3.9,56,30.22,10.0,NE,5.8,-,N/A,,Clear,40,2013-04-25 04:53:00
11:53 PM,15.1,3.0,59,30.21,10.0,North,3.5,-,N/A,,Clear,10,2013-04-25 05:53:00